EW1669 Weather Reports


Display with metric or nautical units.
time (UTC)temp
F
wind
direction
speed
MPH
gust
MPH
rain 1hr
in
rain 24hr
in
rain mn
in
humidity
%
barometer
mb
20260507023834 56 62 9.0 19.0 0.00 0.00 0.00 48 1018.7
20260507023248 56 14 14.0 19.0 0.00 0.00 0.00 47 1018.3
20260507022653 57 10 9.0 25.0 0.00 0.00 0.00 46 1018.0
20260507022053 58 6 14.0 30.0 0.00 0.00 0.00 46 1017.3
20260507021451 58 12 10.0 30.0 0.00 0.00 0.00 45 1017.3
20260507021107 60 345 15.0 23.0 0.00 0.00 0.00 42 1016.7
20260507020252 61 5 7.0 31.0 0.00 0.00 0.00 40 1016.0
20260507015653 63 329 21.0 31.0 0.00 0.00 0.00 37 1015.3
20260507015050 69 306 0.0 0.0 0.00 0.00 0.00 24 1015.0
20260507014455 70 298 0.0 0.0 0.00 0.00 0.00 20 1014.6
20260507013910 70 295 0.0 0.0 0.00 0.00 0.00 20 1014.6
20260507013253 70 256 0.0 0.0 0.00 0.00 0.00 20 1014.6
20260507012906 70 241 0.0 0.0 0.00 0.00 0.00 19 1014.6
20260507012054 71 242 0.0 0.0 0.00 0.00 0.00 19 1014.3
20260507011510 71 226 0.0 0.0 0.00 0.00 0.00 18 1014.3
20260507010855 72 226 0.0 0.0 0.00 0.00 0.00 17 1014.3
20260507010517 72 240 0.0 0.0 0.00 0.00 0.00 16 1013.9
20260507005703 73 211 0.0 0.0 0.00 0.00 0.00 16 1013.9
20260507005049 73 245 0.0 0.0 0.00 0.00 0.00 15 1013.9
20260507004513 73 181 0.0 6.0 0.00 0.00 0.00 16 1013.6
20260507003850 73 197 2.0 6.0 0.00 0.00 0.00 15 1013.9
20260507003307 72 205 0.0 0.0 0.00 0.00 0.00 16 1013.9
20260507002642 72 217 0.0 0.0 0.00 0.00 0.00 15 1013.6
20260507002051 73 227 0.0 0.0 0.00 0.00 0.00 14 1013.3
20260507001547 74 205 0.0 0.0 0.00 0.00 0.00 14 1013.3
20260507001450 74 195 0.0 0.0 0.00 0.00 0.00 14 1013.6
20260507000300 74 220 0.0 1.0 0.00 0.00 0.00 14 1013.6
20260506235945 74 253 0.0 6.0 0.00 0.00 0.00 14 1013.3
20260506235204 74 187 1.0 6.0 0.00 0.00 0.00 13 1013.9
20260506234540 74 237 0.0 4.0 0.00 0.00 0.00 13 1013.3
20260506233953 74 227 0.0 1.0 0.00 0.00 0.00 14 1013.6
20260506233339 73 231 0.0 8.0 0.00 0.00 0.00 14 1013.3
20260506232754 74 217 6.0 8.0 0.00 0.00 0.00 14 1013.6
20260506232152 75 238 0.0 2.0 0.00 0.00 0.00 14 1013.6
20260506231549 75 243 0.0 2.0 0.00 0.00 0.00 13 1013.3
20260506230950 75 195 0.0 0.0 0.00 0.00 0.00 14 1013.6
20260506230349 75 220 0.0 0.0 0.00 0.00 0.00 14 1013.3
20260506225757 75 210 0.0 1.0 0.00 0.00 0.00 14 1013.6
20260506225406 76 178 0.0 0.0 0.00 0.00 0.00 13 1013.6
20260506224541 76 211 0.0 4.0 0.00 0.00 0.00 14 1013.6
20260506224001 76 184 0.0 1.0 0.00 0.00 0.00 13 1013.3
20260506223355 76 197 0.0 0.0 0.00 0.00 0.00 13 1013.6
20260506222751 77 183 0.0 0.0 0.00 0.00 0.00 14 1013.6
20260506222154 76 194 0.0 4.0 0.00 0.00 0.00 14 1013.6
20260506221550 78 210 1.0 4.0 0.00 0.00 0.00 14 1013.6
20260506221217 76 201 0.0 2.0 0.00 0.00 0.00 14 1013.6
20260506220343 76 220 1.0 2.0 0.00 0.00 0.00 15 1013.6
20260506215759 75 206 0.0 0.0 0.00 0.00 0.00 15 1013.9
20260506215149 74 161 0.0 2.0 0.00 0.00 0.00 17 1013.9
20260506214550 74 263 0.0 3.0 0.00 0.00 0.00 16 1013.9
20260506213948 76 184 2.0 8.0 0.00 0.00 0.00 15 1013.9
20260506213403 76 206 3.0 8.0 0.00 0.00 0.00 15 1013.9
20260506212811 76 179 0.0 3.0 0.00 0.00 0.00 16 1013.9
20260506212205 74 222 1.0 3.0 0.00 0.00 0.00 18 1013.9
20260506211551 72 196 0.0 7.0 0.00 0.00 0.00 19 1013.9
20260506211002 74 229 0.0 9.0 0.00 0.00 0.00 20 1014.3
20260506210351 73 198 2.0 11.0 0.00 0.00 0.00 20 1014.3
20260506205803 73 209 3.0 11.0 0.00 0.00 0.00 20 1014.3
20260506205250 73 206 0.0 7.0 0.00 0.00 0.00 20 1014.3
20260506204646 73 242 4.0 10.0 0.00 0.00 0.00 21 1014.6
20260506204526 74 201 4.0 10.0 0.00 0.00 0.00 20 1015.0
20260506203511 73 185 0.0 11.0 0.00 0.00 0.00 21 1014.6
20260506203009 72 210 0.0 2.0 0.00 0.00 0.00 21 1014.3
20260506202352 73 141 1.0 6.0 0.00 0.00 0.00 21 1014.6
20260506201752 73 122 0.0 7.0 0.00 0.00 0.00 23 1014.6
20260506201416 71 203 3.0 9.0 0.00 0.00 0.00 22 1014.6
20260506200551 72 206 2.0 4.0 0.00 0.00 0.00 22 1015.0
20260506200016 73 208 0.0 1.0 0.00 0.00 0.00 22 1015.0
20260506195350 72 192 0.0 13.0 0.00 0.00 0.00 23 1014.6
20260506194753 73 197 4.0 13.0 0.00 0.00 0.00 21 1014.6
20260506194153 70 242 0.0 1.0 0.00 0.00 0.00 23 1014.6
20260506193552 73 215 0.0 3.0 0.00 0.00 0.00 21 1015.3
20260506193009 71 205 0.0 3.0 0.00 0.00 0.00 22 1014.6
20260506192612 73 206 0.0 0.0 0.00 0.00 0.00 22 1015.0
20260506191751 72 200 0.0 4.0 0.00 0.00 0.00 22 1015.3
20260506191156 71 218 0.0 1.0 0.00 0.00 0.00 23 1015.0
20260506190545 70 330 0.0 4.0 0.00 0.00 0.00 26 1015.3
20260506190217 69 208 0.0 19.0 0.00 0.00 0.00 27 1015.3
20260506185351 68 212 0.0 3.0 0.00 0.00 0.00 28 1015.3
20260506184749 68 155 0.0 4.0 0.00 0.00 0.00 31 1015.6
20260506184158 70 215 0.0 3.0 0.00 0.00 0.00 30 1015.6
20260506183816 70 193 2.0 7.0 0.00 0.00 0.00 29 1015.6
20260506183047 68 199 0.0 11.0 0.00 0.00 0.00 30 1015.6
20260506182441 68 208 6.0 11.0 0.00 0.00 0.00 29 1015.6
20260506181848 68 209 1.0 7.0 0.00 0.00 0.00 30 1015.6
20260506181505 69 248 0.0 8.0 0.00 0.00 0.00 29 1016.0
20260506180652 70 182 3.0 8.0 0.00 0.00 0.00 29 1016.0
20260506180110 69 216 3.0 6.0 0.00 0.00 0.00 29 1016.0
20260506175451 70 209 0.0 2.0 0.00 0.00 0.00 30 1015.6
20260506174851 69 183 1.0 2.0 0.00 0.00 0.00 30 1015.6
20260506174311 67 193 0.0 8.0 0.00 0.00 0.00 31 1015.6
20260506173652 68 220 0.0 2.0 0.00 0.00 0.00 32 1016.3
20260506173042 68 273 0.0 3.0 0.00 0.00 0.00 32 1016.3
20260506172501 67 225 0.0 7.0 0.00 0.00 0.00 31 1016.0
20260506172112 67 258 0.0 0.0 0.00 0.00 0.00 32 1016.3
20260506171251 67 341 0.0 0.0 0.00 0.00 0.00 33 1016.3
20260506170643 65 329 0.0 0.0 0.00 0.00 0.00 36 1016.3
20260506170042 64 293 0.0 0.0 0.00 0.00 0.00 37 1016.3
20260506165436 62 5 0.0 6.0 0.00 0.00 0.00 43 1016.3
20260506164921 60 202 0.0 0.0 0.00 0.00 0.00 44 1016.3
20260506164405 60 136 0.0 0.0 0.00 0.00 0.00 44 1016.3
20260506163757 59 192 0.0 0.0 0.00 0.00 0.00 49 1016.3
20260506163153 60 184 0.0 0.0 0.00 0.00 0.00 48 1016.3
20260506162549 58 120 0.0 0.0 0.00 0.00 0.00 52 1016.3
20260506161946 57 149 0.0 0.0 0.00 0.00 0.00 53 1016.3
20260506161346 56 153 0.0 4.0 0.00 0.00 0.00 57 1016.3
20260506160758 55 154 0.0 2.0 0.00 0.00 0.00 58 1016.3
20260506160151 55 145 0.0 0.0 0.00 0.00 0.00 58 1016.0
20260506155537 53 160 0.0 0.0 0.00 0.00 0.00 61 1016.0
20260506154949 53 170 0.0 2.0 0.00 0.00 0.00 62 1016.3
20260506154349 53 171 1.0 4.0 0.00 0.00 0.00 63 1015.6
20260506153747 52 160 0.0 4.0 0.00 0.00 0.00 65 1016.0
20260506153146 51 187 0.0 4.0 0.00 0.00 0.00 66 1016.0
20260506152553 50 171 0.0 2.0 0.00 0.00 0.00 69 1016.0
20260506152004 49 163 0.0 6.0 0.00 0.00 0.00 70 1016.0
20260506151354 49 146 0.0 7.0 0.00 0.00 0.00 70 1016.3
20260506150846 49 140 1.0 7.0 0.00 0.00 0.00 70 1016.3
20260506150252 49 117 0.0 2.0 0.00 0.00 0.00 71 1016.3
20260506145650 48 118 0.0 0.0 0.00 0.00 0.00 72 1016.0
20260506145055 47 104 0.0 6.0 0.00 0.00 0.00 74 1016.7
20260506144451 47 154 0.0 7.0 0.00 0.00 0.00 75 1016.3
20260506143853 46 152 0.0 9.0 0.00 0.00 0.00 76 1016.7
20260506143249 46 147 4.0 9.0 0.00 0.00 0.00 76 1016.3
20260506142707 45 104 0.0 6.0 0.00 0.00 0.00 79 1016.7
20260506142141 44 144 4.0 6.0 0.00 0.00 0.00 79 1016.7
20260506141856 44 121 2.0 3.0 0.00 0.00 0.00 80 1016.3
20260506141050 44 132 1.0 3.0 0.00 0.00 0.00 81 1016.7
20260506140445 43 138 3.0 7.0 0.00 0.00 0.00 83 1016.7
20260506135850 43 125 2.0 4.0 0.00 0.00 0.00 83 1016.3
20260506135253 43 127 2.0 6.0 0.00 0.00 0.00 82 1016.3
20260506135126 42 133 4.0 6.0 0.00 0.00 0.00 84 1016.7
20260506134056 42 110 3.0 6.0 0.00 0.00 0.00 85 1016.7
20260506133445 42 139 5.0 8.0 0.00 0.00 0.00 85 1016.7
20260506132839 42 113 5.0 8.0 0.00 0.00 0.00 85 1016.3
20260506132236 41 121 6.0 9.0 0.00 0.00 0.00 85 1016.3
20260506131622 42 132 4.0 11.0 0.00 0.00 0.00 84 1016.3
20260506131044 41 125 6.0 11.0 0.00 0.00 0.00 84 1016.0
20260506130442 41 105 6.0 9.0 0.00 0.00 0.00 84 1016.0
20260506125851 41 121 1.0 9.0 0.00 0.00 0.00 85 1016.0
20260506125252 41 105 3.0 8.0 0.00 0.00 0.00 85 1016.0
20260506124652 41 157 6.0 8.0 0.00 0.00 0.00 85 1015.6
20260506124045 41 95 1.0 8.0 0.00 0.00 0.00 85 1015.6
20260506123451 41 122 4.0 6.0 0.00 0.00 0.00 85 1015.6
20260506122855 41 122 0.0 1.0 0.00 0.00 0.00 85 1015.6
20260506122338 41 121 0.0 6.0 0.00 0.00 0.00 85 1015.6
20260506122018 40 116 1.0 6.0 0.00 0.00 0.00 85 1015.6
20260506121154 40 140 5.0 6.0 0.00 0.00 0.00 85 1016.0
20260506120813 40 73 5.0 6.0 0.00 0.00 0.00 85 1015.6
20260506115949 40 116 2.0 8.0 0.00 0.00 0.00 85 1015.6
20260506115340 40 102 6.0 8.0 0.00 0.00 0.00 85 1015.3
20260506115011 40 103 1.0 3.0 0.00 0.00 0.00 84 1016.0
20260506114626 40 104 2.0 3.0 0.00 0.00 0.00 84 1015.6
20260506113817 40 86 1.0 4.0 0.00 0.00 0.00 84 1015.6
20260506112953 40 79 2.0 4.0 0.00 0.00 0.00 83 1015.6
20260506112352 40 93 1.0 3.0 0.00 0.00 0.00 83 1015.3
20260506111750 40 76 1.0 7.0 0.00 0.00 0.00 83 1015.3
20260506111234 40 73 2.0 3.0 0.00 0.00 0.00 83 1015.0
20260506110652 40 71 2.0 3.0 0.00 0.00 0.00 83 1015.0
20260506110051 40 90 2.0 3.0 0.00 0.00 0.00 83 1015.3
20260506105539 40 71 1.0 4.0 0.00 0.00 0.00 83 1015.0
20260506105001 40 95 3.0 4.0 0.00 0.00 0.00 83 1015.3
20260506104431 40 72 3.0 4.0 0.00 0.00 0.00 83 1015.0
20260506103846 40 70 2.0 2.0 0.00 0.00 0.00 82 1015.0
20260506103248 40 59 1.0 6.0 0.00 0.00 0.00 83 1015.0
20260506102648 40 20 1.0 3.0 0.00 0.00 0.00 82 1015.3
20260506102046 40 20 0.0 6.0 0.00 0.00 0.00 82 1015.3
20260506101454 40 20 3.0 6.0 0.00 0.00 0.00 82 1015.0
20260506100849 40 17 1.0 7.0 0.00 0.00 0.00 81 1015.0
20260506100256 40 17 6.0 7.0 0.00 0.00 0.00 81 1015.0
20260506095640 40 16 2.0 4.0 0.00 0.00 0.00 80 1014.6
20260506095050 40 15 2.0 3.0 0.00 0.00 0.00 80 1014.6
20260506094454 41 15 0.0 6.0 0.00 0.00 0.00 79 1015.0
20260506093923 41 15 2.0 3.0 0.00 0.00 0.00 79 1014.6
20260506093353 41 14 2.0 3.0 0.00 0.00 0.00 78 1014.6
20260506093033 41 12 2.0 3.0 0.00 0.00 0.00 78 1014.6
20260506092151 41 11 2.0 6.0 0.00 0.00 0.00 78 1015.0
20260506091553 42 11 1.0 6.0 0.00 0.00 0.00 77 1014.6
20260506090951 42 11 1.0 4.0 0.00 0.00 0.00 77 1015.0
20260506090347 42 10 2.0 7.0 0.00 0.00 0.00 77 1014.6
20260506085805 43 38 4.0 7.0 0.00 0.00 0.00 77 1014.3
20260506085210 44 45 0.0 6.0 0.00 0.00 0.00 77 1014.3
20260506084548 44 58 2.0 6.0 0.00 0.00 0.00 77 1014.3
20260506083953 44 68 2.0 4.0 0.00 0.00 0.00 76 1013.9
20260506083357 44 77 2.0 6.0 0.00 0.00 0.00 76 1013.9
20260506082748 45 70 4.0 9.0 0.00 0.00 0.00 75 1013.6
20260506082150 45 69 2.0 9.0 0.00 0.00 0.00 75 1013.6
20260506081602 45 68 3.0 9.0 0.00 0.00 0.00 75 1013.3
20260506080949 45 64 2.0 4.0 0.00 0.00 0.00 74 1013.3
20260506080348 45 78 2.0 6.0 0.00 0.00 0.00 73 1013.6
20260506073344 46 23 2.0 6.0 0.00 0.00 0.00 72 1013.3
20260506072758 47 65 2.0 6.0 0.00 0.00 0.00 71 1013.3
20260506072654 47 22 3.0 6.0 0.00 0.00 0.00 71 1012.9
20260506071545 47 75 3.0 7.0 0.00 0.00 0.00 70 1013.3
20260506070952 47 27 5.0 7.0 0.00 0.00 0.00 70 1013.6
20260506070432 47 40 3.0 8.0 0.00 0.00 0.00 69 1013.3
20260506062512 51 120 0.0 1.0 0.00 0.00 0.00 65 1012.9
20260506061646 52 137 0.0 6.0 0.00 0.00 0.00 64 1012.9
20260506061039 51 116 0.0 3.0 0.00 0.00 0.00 64 1012.6
20260506060445 52 82 0.0 3.0 0.00 0.00 0.00 64 1012.6
20260506051049 55 126 2.0 3.0 0.00 0.00 0.00 59 1012.9
20260506050444 55 116 0.0 3.0 0.00 0.00 0.00 58 1012.6
20260506044916 55 105 0.0 6.0 0.00 0.00 0.00 57 1012.6
20260506044050 55 102 0.0 7.0 0.00 0.00 0.00 56 1012.6
20260506043453 55 85 0.0 6.0 0.00 0.00 0.00 56 1012.6
20260506042850 55 114 4.0 10.0 0.00 0.00 0.00 56 1012.6
20260506042249 55 54 1.0 4.0 0.00 0.00 0.00 55 1012.6
20260506042135 55 63 0.0 8.0 0.00 0.00 0.00 55 1012.6
20260506041103 55 108 4.0 9.0 0.00 0.00 0.00 55 1012.6
20260506040445 55 85 2.0 11.0 0.00 0.00 0.00 55 1012.6
20260506040126 55 106 1.0 3.0 0.00 0.00 0.00 54 1012.6
20260506035254 55 84 0.0 2.0 0.00 0.00 0.00 54 1012.9
20260506034645 55 90 0.0 7.0 0.00 0.00 0.00 54 1012.6
20260506034321 55 79 0.0 1.0 0.00 0.00 0.00 53 1012.6
20260506033934 56 50 0.0 3.0 0.00 0.00 0.00 52 1012.6
20260506032950 56 18 1.0 3.0 0.00 0.00 0.00 52 1012.3
20260506032347 56 80 0.0 6.0 0.00 0.00 0.00 52 1012.3
20260506031735 56 84 0.0 1.0 0.00 0.00 0.00 52 1012.3
20260506031149 56 100 0.0 9.0 0.00 0.00 0.00 51 1011.9
20260506031037 57 20 3.0 13.0 0.00 0.00 0.00 51 1011.9
20260506025949 57 95 6.0 13.0 0.00 0.00 0.00 51 1011.6
20260506025318 57 70 0.0 6.0 0.00 0.00 0.00 51 1011.2
20260506024756 57 31 2.0 6.0 0.00 0.00 0.00 52 1011.6